FGRST (GLAST)

Last updated on Sun Apr 12 2026 00:02:44 GMT+0000 (Coordinated Universal Time)

1 33053U 08029A 26101.23612095 .00003007 00000+0 10845-3 0 9991 2 33053 25.5830 309.2258 0007740 256.3613 103.6063 15.23590127985615
UTC large
Height (km)
Speed (km/s)
/
Latitude / Longitude
Inclination (degrees)
Orbital Period (minutes)
Azimuth
Elevation
Range (km)
Doppler Factor

Next 0 passes for location: London (51.5072 / 0.1276)

Sorry there are no passes over London.
FGRST (GLAST)